« Back
NWS Peachtree City, Ga » Text Product » GA Regional Weather Roundup


Printer-friendly Version
Current Version              Previous Versions:   1  2  3  4  5  6  7  8  9  

Regional Weather Roundup

707
ASUS42 KFFC 271003
RWRGA
WEATHER ROUNDUP FOR GEORGIA
NATIONAL WEATHER SERVICE PEACHTREE CITY GA
600 AM EDT FRI MAR 27 2015

NOTE: "FAIR" INDICATES FEW OR NO CLOUDS BELOW 12,000 FEET WITH NO
SIGNIFICANT WEATHER AND/OR OBSTRUCTIONS TO VISIBILITY.

* = USE WITH CAUTION. THE STATIONS MARKED WITH AN ASTERISK MAY NOT
REPORT WEATHER SUCH AS PRECIPITATION, FOG, OR THUNDER AND ARE NOT
QUALITY CONTROLLED BY NWS.

THE REMARK "TC" DENOTES TEMPERATURE READING IN DEGREES CELSIUS.

GAZ001>058-271100-
NORTH GEORGIA

CITY           SKY/WX    TMP DP  RH WIND       PRES   REMARKS
ATLANTA        CLOUDY    49  45  86 NW10      29.74S
ATHENS         CLOUDY    59  53  80 W7        29.69S
CHAMBLEE       CLOUDY    48  45  89 W13       29.75R
PEACHTREE CITY CLOUDY    51  47  86 NW14      29.77R
ROME           CLOUDY    46  41  82 N14G20    29.83R
WEST ATLANTA   CLOUDY    48  44  86 NW10      29.76F
GAINESVILLE    CLOUDY    50  49  96 W14       29.73R
CARTERSVILLE   LGT RAIN  46  43  89 N8G17     29.81R


CITY           SKY/WX    TMP DP  RH WIND       PRES   REMARKS
DALTON*        CLOUDY    43  41  93 N16G22    29.83R
MARIETTA       CLOUDY    47  46  98 NW15      29.76R
$$

GAZ059>098-102>109-271100-
CENTRAL GEORGIA

CITY           SKY/WX    TMP DP  RH WIND       PRES   REMARKS
AUGUSTA-BUSH   CLOUDY    64  60  87 SW6       29.69S
AUGUSTA-DANIEL CLOUDY    64  59  83 SW5       29.69F
COLUMBUS       CLOUDY    57  53  86 N8        29.76R
MACON          CLOUDY    64  60  87 SW7       29.70F
ROBINS AFB     CLOUDY    64  61  88 SW12      29.70S


CITY           SKY/WX    TMP DP  RH WIND       PRES   REMARKS
LAGRANGE*      CLOUDY    56  53  89 N9        29.78R
SYLVANIA*      CLOUDY    64  62  94 SW3       29.73F
MILLEDGEVILLE* LGT RAIN  63  63 100 N5        29.69F
$$

GAZ099>101-110>166-271100-
SOUTH GEORGIA

CITY           SKY/WX    TMP DP  RH WIND       PRES   REMARKS
SAVANNAH       CLOUDY    64  60  87 W10       29.74R
VALDOSTA       CLOUDY    64  64 100 VRB3      29.78S
ALMA           CLOUDY    63  61  93 SW6       29.76S
ST SIMONS      CLOUDY    65  62  90 SW9       29.76S
FT STEWART     CLOUDY    63  60  91 SW8       29.73S
ALBANY         CLOUDY    64  62  93 SW7       29.78R
HUNTER AFB     CLOUDY    64  64 100 SW10      29.72S
MOODY AFB      CLOUDY    63  63 100 SW7       29.76F
BRUNSWICK      CLOUDY    64  61  88 W9        29.77R


CITY           SKY/WX    TMP DP  RH WIND       PRES   REMARKS
BAINBRIDGE*    CLOUDY    66  64  94 W7        29.78R
MOULTRIE*      MOCLDY    63 N/A N/A SW3       29.78R
VIDALIA*       CLOUDY    63  63 100 SW10      29.74S
WAYCROSS*      MOCLDY    65  65  99 W5        29.76S
DOUGLAS*       CLOUDY    64  63  94 SW6       29.77S
$$



USA.gov is the U.S. government's official web portal to all federal, state and local government web resources and services.